TimeEDT,TemperatureF,Dew PointF,Humidity,Sea Level PressureIn,VisibilityMPH,Wind Direction,Wind SpeedMPH,Gust SpeedMPH,PrecipitationIn,Events,Conditions,WindDirDegrees,DateUTC
12:54 AM,44.1,35.1,71,30.03,10.0,SW,12.7,-,0.00,Rain,Light Rain,230,2014-04-11 04:54:00
1:54 AM,46.0,34.0,63,30.00,10.0,SSW,11.5,-,0.00,,Overcast,210,2014-04-11 05:54:00
2:54 AM,46.0,33.1,61,29.96,10.0,SSW,9.2,-,N/A,,Overcast,210,2014-04-11 06:54:00
3:54 AM,46.9,32.0,56,29.93,10.0,SSW,17.3,24.2,N/A,,Scattered Clouds,210,2014-04-11 07:54:00
4:54 AM,46.9,33.1,59,29.93,10.0,SW,15.0,-,N/A,,Clear,220,2014-04-11 08:54:00
5:54 AM,46.9,35.1,63,29.94,10.0,SW,15.0,-,N/A,,Mostly Cloudy,230,2014-04-11 09:54:00
6:54 AM,48.0,35.1,61,29.96,10.0,SW,12.7,-,N/A,,Mostly Cloudy,230,2014-04-11 10:54:00
7:54 AM,51.1,35.1,54,29.98,10.0,WSW,15.0,-,N/A,,Overcast,240,2014-04-11 11:54:00
8:54 AM,52.0,37.0,57,29.99,10.0,West,11.5,-,0.00,Rain,Light Rain,260,2014-04-11 12:54:00
9:54 AM,55.0,36.0,49,29.99,10.0,WSW,11.5,18.4,0.01,,Partly Cloudy,250,2014-04-11 13:54:00
10:54 AM,60.1,36.0,41,29.99,10.0,SW,9.2,-,N/A,,Clear,230,2014-04-11 14:54:00
11:54 AM,63.0,37.9,40,29.99,10.0,West,13.8,20.7,N/A,,Scattered Clouds,260,2014-04-11 15:54:00
12:54 PM,63.0,37.9,40,29.98,10.0,WSW,13.8,-,N/A,,Scattered Clouds,250,2014-04-11 16:54:00
1:54 PM,62.1,37.9,41,29.97,10.0,WSW,12.7,-,N/A,,Overcast,250,2014-04-11 17:54:00
2:54 PM,63.0,37.9,40,29.96,10.0,SSW,12.7,-,N/A,,Scattered Clouds,210,2014-04-11 18:54:00
3:54 PM,63.0,39.0,41,29.95,10.0,SSW,9.2,-,0.00,Rain,Light Rain,210,2014-04-11 19:54:00
4:54 PM,59.0,46.0,62,29.96,10.0,SSW,8.1,-,0.00,Rain,Light Rain,210,2014-04-11 20:54:00
5:54 PM,54.0,48.0,80,30.00,8.0,West,11.5,-,0.01,Rain,Rain,260,2014-04-11 21:54:00
6:54 PM,53.1,50.0,89,29.99,10.0,WSW,9.2,-,0.01,,Overcast,250,2014-04-11 22:54:00
7:49 PM,51.8,50.0,94,29.99,10.0,WNW,6.9,-,0.00,,Overcast,300,2014-04-11 23:49:00
7:54 PM,52.0,50.0,93,30.01,10.0,WNW,6.9,-,0.00,,Overcast,300,2014-04-11 23:54:00
8:16 PM,50.0,46.9,89,30.01,10.0,WNW,8.1,-,0.00,Rain,Light Rain,300,2014-04-12 00:16:00
8:54 PM,48.9,46.0,90,30.04,10.0,NW,6.9,-,0.00,Rain,Light Rain,310,2014-04-12 00:54:00
9:54 PM,48.0,43.0,83,30.03,10.0,NNW,6.9,-,0.01,Rain,Light Rain,330,2014-04-12 01:54:00
10:54 PM,48.0,42.1,80,30.02,10.0,Calm,Calm,-,0.00,,Overcast,0,2014-04-12 02:54:00
11:54 PM,46.0,43.0,89,30.02,10.0,WSW,3.5,-,0.00,Rain,Light Rain,250,2014-04-12 03:54:00